Location: Dogstar Observatory
(35.3981°N, 83.1078°W)
Time: 01:45:38
(UTC-05:00)

ISS - Pass Details

Date: 04 December 2021
Orbit: 413 x 422 km, 51.6° (Epoch: 29 January)

Event Time Altitude Azimuth Distance (km) Brightness Sun altitude
Rises 18:01:58 0° 327° (NNW) 2,379 0.2 -8.7°
Reaches altitude 10° 18:05:14 10° 0° (N) 1,508 -1.1 -9.3°
Maximum altitude 18:06:35 12° 24° (NNE) 1,396 -1.5 -9.6°
Enters shadow 18:07:29 11° 40° (NE) 1,445 -1.6 -9.8°
